This is the latest recevied weather packets stored in our database for station/object N8XHB. If no packets are shown the sender has not sent any weather packets the latest 10 day(s).
| Time | Temp. | Humidity | Pressure | Rain* | Wind** | Luminosity | Snow |
|---|---|---|---|---|---|---|---|
| 1777939349 | 22.78° C | 34% | 996.9 hPa | 0 mm | - | 23 W/m² | - |
| 1777939045 | 22.78° C | 34% | 997.2 hPa | 0 mm | - | 26 W/m² | - |
| 1777938741 | 22.78° C | 34% | 997.2 hPa | 0 mm | - | 29 W/m² | - |
| 1777938439 | 23.33° C | 33% | 997.1 hPa | 0 mm | - | 35 W/m² | - |
| 1777938136 | 23.33° C | 33% | 997.3 hPa | 0 mm | - | 41 W/m² | - |
| 1777937832 | 23.33° C | 33% | 997.2 hPa | 0 mm | - | 44 W/m² | - |
| 1777937528 | 23.33° C | 33% | 997.3 hPa | 0 mm | - | 49 W/m² | - |
| 1777937226 | 23.33° C | 33% | 997.6 hPa | 0 mm | - | 55 W/m² | - |
| 1777936923 | 23.33° C | 33% | 997.7 hPa | 0 mm | - | 71 W/m² | - |
| 1777936619 | 23.33° C | 33% | 997.6 hPa | 0 mm | - | 78 W/m² | - |
| 1777936315 | 22.78° C | 34% | 997.8 hPa | 0 mm | - | 74 W/m² | - |
| 1777936012 | 22.78° C | 34% | 998 hPa | 0 mm | - | 63 W/m² | - |
| 1777935711 | 22.78° C | 34% | 998.1 hPa | 0 mm | - | 59 W/m² | - |
| 1777935409 | 22.78° C | 34% | 998.2 hPa | 0 mm | - | 57 W/m² | - |
| 1777935104 | 23.33° C | 34% | 998.2 hPa | 0 mm | - | 54 W/m² | - |
| 1777934802 | 23.33° C | 33% | 998.2 hPa | 0 mm | - | 52 W/m² | - |
| 1777934498 | 23.33° C | 33% | 998.4 hPa | 0 mm | - | 50 W/m² | - |
| 1777934196 | 23.33° C | 33% | 998.5 hPa | 0 mm | - | 56 W/m² | - |
| 1777933891 | 23.33° C | 33% | 998.4 hPa | 0 mm | - | 69 W/m² | - |
| 1777933588 | 23.33° C | 33% | 998.7 hPa | 0 mm | - | 72 W/m² | - |
| 1777933285 | 23.33° C | 33% | 998.6 hPa | 0 mm | - | 71 W/m² | - |
| 1777932983 | 23.33° C | 32% | 998.6 hPa | 0 mm | - | 73 W/m² | - |
| 1777932680 | 23.33° C | 32% | 998.7 hPa | 0 mm | - | 85 W/m² | - |
| 1777932376 | 23.33° C | 32% | 998.8 hPa | 0 mm | - | 83 W/m² | - |
| 1777932074 | 23.33° C | 32% | 998.9 hPa | 0 mm | - | 81 W/m² | - |
* Rain latest hour (hover to see other rain measurements)
** Current wind speed in m/s (hover to see current wind gust speed)